EW0624 Weather Reports


Display with metric or nautical units.
time (UTC)temp
F
wind
direction
speed
MPH
gust
MPH
rain 1hr
in
rain 24hr
in
rain mn
in
humidity
%
barometer
mb
20260510141903 52 247 6.0 13.0 0.09 0.25 0.17 92 1009.5
20260510141403 53 274 9.0 15.0 0.08 0.24 0.16 92 1009.4
20260510140903 53 242 7.0 14.0 0.06 0.22 0.14 91 1009.2
20260510134903 54 185 6.0 12.0 0.06 0.17 0.09 90 1008.4
20260510133903 54 261 3.0 8.0 0.09 0.21 0.09 90 1008.0
20260510133403 54 267 2.0 7.0 0.08 0.24 0.08 90 1007.8
20260510132903 54 261 5.0 8.0 0.08 0.28 0.08 90 1007.9
20260510132403 54 267 1.0 5.0 0.08 0.28 0.08 91 1007.8
20260510131903 53 279 3.0 10.0 0.08 0.28 0.08 91 1007.6
20260510131402 53 276 2.0 9.0 0.08 0.28 0.08 91 1007.6
20260510130903 53 282 3.0 12.0 0.08 0.28 0.08 91 1007.5
20260510130402 53 317 7.0 12.0 0.08 0.28 0.08 91 1007.3
20260510125903 53 269 6.0 12.0 0.08 0.28 0.08 90 1007.4
20260510125403 53 297 2.0 15.0 0.06 0.25 0.06 89 1007.4
20260510124903 54 245 11.0 20.0 0.04 0.24 0.04 86 1007.4
20260510123903 58 296 20.0 32.0 0.00 0.20 0.00 74 1007.0
20260510123403 62 280 12.0 28.0 0.00 0.20 0.00 64 1006.9
20260510122903 63 157 3.0 8.0 0.00 0.20 0.00 63 1006.4
20260510120903 64 70 4.0 13.0 0.00 0.20 0.00 62 1006.2
20260510120403 64 91 5.0 12.0 0.00 0.20 0.00 63 1006.3
20260510115903 64 81 3.0 8.0 0.00 0.20 0.00 64 1006.3
20260510114403 62 108 3.0 13.0 0.00 0.20 0.00 64 1006.5
20260510113903 62 148 8.0 13.0 0.00 0.20 0.00 64 1006.6
20260510113402 62 135 6.0 12.0 0.00 0.20 0.00 64 1006.6
20260510112903 62 124 6.0 13.0 0.00 0.20 0.00 65 1006.8
20260510111903 62 128 7.0 13.0 0.00 0.20 0.00 66 1006.9
20260510111402 62 139 3.0 10.0 0.00 0.20 0.00 66 1007.0
20260510110903 61 131 4.0 12.0 0.00 0.20 0.00 66 1007.1
20260510110403 61 143 3.0 12.0 0.00 0.20 0.00 66 1007.2
20260510105902 61 118 5.0 12.0 0.00 0.20 0.00 66 1007.2
20260510105403 61 142 6.0 12.0 0.00 0.20 0.00 66 1007.2
20260510104902 61 118 4.0 12.0 0.00 0.20 0.00 67 1007.3
20260510103903 61 154 7.0 12.0 0.00 0.20 0.00 67 1007.2
20260510103403 61 143 7.0 13.0 0.00 0.20 0.00 67 1007.3
20260510102403 61 132 5.0 12.0 0.00 0.20 0.00 69 1007.2
20260510095403 62 60 3.0 9.0 0.00 0.20 0.00 71 1007.3
20260510094903 62 67 1.0 5.0 0.00 0.20 0.00 71 1007.3
20260510094403 63 36 2.0 3.0 0.00 0.20 0.00 70 1007.3
20260510093903 63 77 1.0 3.0 0.00 0.20 0.00 70 1007.2
20260510092906 63 321 0.0 1.0 0.00 0.20 0.00 69 1007.2
20260510092403 62 321 0.0 1.0 0.00 0.20 0.00 69 1007.2
20260510090903 60 319 0.0 0.0 0.00 0.20 0.00 76 1007.2
20260510090403 60 325 0.0 0.0 0.00 0.20 0.00 78 1007.1
20260510085903 59 325 0.0 0.0 0.00 0.20 0.00 79 1007.1
20260510085403 58 324 0.0 0.0 0.00 0.20 0.00 80 1007.1
20260510084902 58 324 0.0 0.0 0.00 0.20 0.00 81 1007.2
20260510084403 57 324 0.0 0.0 0.00 0.20 0.00 81 1007.2
20260510083902 57 325 0.0 1.0 0.00 0.20 0.00 83 1007.2
20260510083402 56 325 0.0 0.0 0.00 0.20 0.00 88 1007.1
20260510082902 56 325 0.0 0.0 0.00 0.20 0.00 91 1007.1
20260510082403 55 325 0.0 0.0 0.00 0.20 0.00 92 1007.2
20260510081903 55 324 0.0 2.0 0.00 0.20 0.00 92 1007.3
20260510080903 55 325 0.0 2.0 0.00 0.20 0.00 92 1007.4
20260510075403 55 327 2.0 3.0 0.00 0.20 0.00 88 1007.5
20260510074902 56 25 0.0 0.0 0.00 0.20 0.00 87 1007.4
20260510074406 56 26 0.0 0.0 0.00 0.20 0.00 87 1007.4
20260510073904 55 26 0.0 0.0 0.00 0.20 0.00 86 1007.3
20260510073403 56 26 0.0 0.0 0.00 0.20 0.00 86 1007.1
20260510072403 57 62 0.0 0.0 0.00 0.20 0.00 87 1006.9
20260510071903 56 64 0.0 0.0 0.00 0.20 0.00 89 1006.9
20260510071403 56 64 0.0 0.0 0.00 0.20 0.00 90 1006.9
20260510070902 55 63 0.0 0.0 0.00 0.20 0.00 92 1007.0
20260510065903 54 63 0.0 0.0 0.00 0.20 0.00 92 1007.1
20260510065403 54 64 0.0 0.0 0.00 0.20 0.00 93 1007.1
20260510064903 53 63 0.0 0.0 0.00 0.20 0.00 93 1007.1
20260510064403 53 63 0.0 0.0 0.00 0.20 0.00 94 1007.1
20260510063902 53 64 0.0 0.0 0.00 0.20 0.00 94 1007.0
20260510063403 53 63 2.0 3.0 0.00 0.20 0.00 94 1007.0
20260510062902 52 61 2.0 3.0 0.00 0.20 0.00 94 1007.0
20260510061903 52 52 2.0 3.0 0.00 0.20 0.00 95 1007.1
20260510061403 52 49 0.0 3.0 0.00 0.20 0.00 95 1007.0
20260510060903 53 47 3.0 5.0 0.00 0.20 0.00 96 1007.0
20260510060403 53 348 1.0 3.0 0.00 0.20 0.00 96 1006.9
20260510055903 52 323 0.0 0.0 0.00 0.20 0.00 96 1006.8
20260510055403 52 323 0.0 0.0 0.00 0.20 0.00 96 1006.8
20260510054903 51 322 0.0 0.0 0.00 0.20 0.00 96 1006.7
20260510054402 51 322 0.0 0.0 0.00 0.20 0.00 96 1006.7
20260510053403 51 322 0.0 1.0 0.00 0.20 0.00 96 1006.7
20260510052903 51 322 1.0 3.0 0.00 0.20 0.00 96 1006.5
20260510051903 51 321 0.0 0.0 0.00 0.20 0.00 96 1006.6
20260510051403 51 266 0.0 0.0 0.00 0.20 0.00 96 1006.6
20260510045903 50 266 0.0 2.0 0.00 0.20 0.00 96 1006.6
20260510044403 51 163 3.0 10.0 0.00 0.20 0.00 95 1006.6
20260510043903 51 250 1.0 3.0 0.00 0.20 0.00 95 1006.5
20260510043403 51 299 0.0 0.0 0.00 0.20 0.00 95 1006.5
20260510042903 51 299 0.0 1.0 0.00 0.20 0.00 95 1006.5
20260510041906 51 252 6.0 8.0 0.00 0.20 0.00 95 1006.5
20260510041403 51 228 5.0 7.0 0.00 0.20 0.00 95 1006.5
20260510040917 51 249 3.0 7.0 0.00 0.20 0.00 95 1006.4
20260510040403 51 280 0.0 3.0 0.00 0.20 0.00 95 1006.4
20260510035903 51 280 1.0 6.0 0.00 0.20 0.00 94 1006.4
20260510034403 51 290 0.0 3.0 0.00 0.20 0.00 94 1006.4
20260510033903 51 291 0.0 0.0 0.00 0.20 0.00 94 1006.3
20260510032903 51 290 2.0 5.0 0.00 0.20 0.00 93 1006.3
20260510032403 52 294 0.0 1.0 0.00 0.20 0.00 93 1006.3
20260510031903 52 294 1.0 6.0 0.00 0.20 0.00 93 1006.3
20260510031403 52 289 5.0 9.0 0.00 0.20 0.00 93 1006.3
20260510030903 52 178 0.0 3.0 0.00 0.20 0.00 94 1006.1
20260510025903 52 224 1.0 5.0 0.00 0.20 0.00 95 1006.2
20260510025403 52 259 0.0 0.0 0.00 0.20 0.00 95 1006.3
20260510024903 52 259 0.0 0.0 0.00 0.20 0.00 94 1006.3
20260510023903 51 259 0.0 3.0 0.00 0.20 0.00 93 1006.3
20260510023403 52 261 2.0 6.0 0.00 0.20 0.00 93 1006.3
20260510022903 52 273 1.0 6.0 0.00 0.20 0.00 93 1006.3
20260510022403 53 249 1.0 3.0 0.00 0.20 0.00 93 1006.3
20260510021903 53 207 0.0 2.0 0.00 0.20 0.00 92 1006.4
20260510021403 53 184 0.0 2.0 0.00 0.20 0.00 92 1006.4
20260510020903 53 184 1.0 3.0 0.00 0.20 0.00 91 1006.3
20260510020403 53 183 1.0 2.0 0.00 0.20 0.00 92 1006.3
20260510015903 53 184 0.0 0.0 0.00 0.20 0.00 92 1006.3
20260510015403 53 184 0.0 0.0 0.00 0.20 0.00 92 1006.3
20260510014903 53 184 0.0 0.0 0.00 0.20 0.00 93 1006.3
20260510014403 53 184 0.0 0.0 0.00 0.20 0.00 93 1006.4
20260510013903 53 184 0.0 0.0 0.00 0.20 0.00 93 1006.4
20260510013403 53 182 0.0 3.0 0.00 0.20 0.00 93 1006.3
20260510012903 53 182 0.0 3.0 0.00 0.20 0.00 93 1006.2
20260510012403 52 182 0.0 3.0 0.00 0.20 0.00 93 1006.2
20260510011903 52 184 3.0 6.0 0.00 0.20 0.00 94 1006.3
20260510010403 52 181 0.0 0.0 0.00 0.20 0.00 94 1006.3
20260510005903 52 182 0.0 0.0 0.00 0.20 0.00 95 1006.4
20260510005403 52 182 0.0 2.0 0.00 0.20 0.00 95 1006.5
20260510004903 52 182 3.0 5.0 0.00 0.20 0.00 95 1006.7
20260510004403 52 184 3.0 5.0 0.00 0.20 0.00 95 1006.8
20260510003903 52 184 2.0 3.0 0.00 0.20 0.00 95 1006.7
20260510002903 52 221 0.0 5.0 0.00 0.20 0.00 94 1006.7
20260510002403 52 218 2.0 3.0 0.00 0.20 0.00 94 1006.7
20260510001403 52 185 2.0 3.0 0.00 0.20 0.00 93 1006.7
20260510000903 53 209 0.0 5.0 0.00 0.20 0.00 93 1006.7
20260510000403 53 206 0.0 2.0 0.00 0.20 0.00 93 1006.7
20260509235903 53 206 0.0 3.0 0.00 0.20 0.00 93 1006.5
20260509235403 53 206 1.0 3.0 0.00 0.20 0.00 93 1006.8
20260509234903 53 207 0.0 0.0 0.00 0.20 0.00 93 1006.7
20260509233903 53 207 0.0 0.0 0.00 0.20 0.00 92 1006.6
20260509233403 53 207 0.0 1.0 0.00 0.20 0.00 92 1006.7
20260509232903 53 207 0.0 3.0 0.00 0.20 0.00 92 1006.7
20260509232403 54 203 1.0 3.0 0.00 0.20 0.00 92 1006.8
20260509231903 54 184 0.0 0.0 0.00 0.20 0.00 92 1006.7
20260509231403 54 184 0.0 3.0 0.00 0.20 0.00 92 1006.7
20260509230903 54 184 2.0 3.0 0.00 0.20 0.00 92 1006.8
20260509230403 54 144 0.0 0.0 0.00 0.20 0.00 92 1006.6
20260509225403 54 144 2.0 3.0 0.00 0.20 0.00 92 1006.7
20260509224903 54 100 0.0 0.0 0.00 0.20 0.00 92 1006.7
20260509224403 54 99 0.0 3.0 0.00 0.20 0.00 92 1006.7
20260509222903 54 128 1.0 5.0 0.00 0.20 0.00 91 1006.7
20260509222404 54 183 1.0 3.0 0.00 0.20 0.00 91 1006.7
20260509221903 54 185 0.0 3.0 0.00 0.20 0.00 91 1006.6
20260509221403 54 185 3.0 6.0 0.00 0.20 0.00 90 1006.7
20260509220403 55 194 2.0 3.0 0.00 0.20 0.00 89 1006.7
20260509215903 55 269 0.0 3.0 0.00 0.20 0.20 88 1006.6
20260509215403 55 281 2.0 6.0 0.00 0.20 0.20 87 1006.5
20260509214903 56 242 1.0 5.0 0.00 0.20 0.20 87 1006.5
20260509214404 56 243 3.0 5.0 0.00 0.20 0.20 86 1006.5
20260509213903 56 183 5.0 6.0 0.00 0.20 0.20 86 1006.5
20260509213403 56 147 3.0 3.0 0.00 0.20 0.20 87 1006.3
20260509212403 56 126 0.0 0.0 0.00 0.20 0.20 88 1006.5
20260509211403 56 126 0.0 1.0 0.00 0.20 0.20 88 1006.5
20260509210903 56 126 0.0 0.0 0.00 0.20 0.20 88 1006.5
20260509210403 57 126 0.0 2.0 0.00 0.20 0.20 87 1006.4
20260509205903 57 85 0.0 0.0 0.00 0.20 0.20 87 1006.4
20260509205403 57 85 0.0 0.0 0.00 0.20 0.20 87 1006.3
20260509202903 57 82 2.0 3.0 0.00 0.20 0.20 86 1006.1
20260509202403 57 288 1.0 2.0 0.00 0.20 0.20 86 1005.9
20260509201904 57 281 0.0 0.0 0.00 0.20 0.20 87 1005.9
20260509201403 57 281 0.0 0.0 0.00 0.20 0.20 86 1005.6
20260509200903 57 281 0.0 0.0 0.00 0.20 0.20 86 1005.5
20260509200403 57 281 0.0 3.0 0.00 0.20 0.20 86 1005.5
20260509195903 57 175 0.0 0.0 0.00 0.20 0.20 87 1005.5
20260509195403 57 165 0.0 0.0 0.01 0.20 0.20 86 1005.5
20260509193903 57 127 1.0 7.0 0.02 0.20 0.20 87 1005.3
20260509193403 57 136 2.0 6.0 0.02 0.20 0.20 88 1005.3
20260509192903 57 143 0.0 2.0 0.02 0.20 0.20 88 1005.3
20260509192403 57 139 2.0 5.0 0.02 0.20 0.20 88 1005.2
20260509191903 57 151 3.0 8.0 0.02 0.20 0.20 88 1005.1
20260509191403 58 146 3.0 9.0 0.02 0.20 0.20 89 1005.0
20260509190903 58 120 3.0 8.0 0.02 0.20 0.20 89 1005.1
20260509185903 59 130 6.0 12.0 0.03 0.20 0.20 90 1004.9
20260509185403 59 145 2.0 3.0 0.02 0.20 0.20 90 1004.7
20260509184903 59 74 1.0 7.0 0.02 0.20 0.20 90 1004.3
20260509184403 60 39 3.0 9.0 0.02 0.20 0.20 89 1004.1
20260509183903 61 111 0.0 3.0 0.02 0.19 0.19 89 1004.8
20260509183403 61 194 0.0 8.0 0.02 0.19 0.19 88 1005.0
20260509182903 62 173 1.0 6.0 0.02 0.19 0.19 87 1005.2
20260509182403 62 187 2.0 8.0 0.01 0.18 0.18 85 1005.2
20260509180903 64 152 1.0 3.0 0.01 0.18 0.18 81 1004.7
20260509180403 64 134 0.0 3.0 0.00 0.17 0.17 80 1004.4
20260509175903 64 81 1.0 3.0 0.00 0.17 0.17 79 1004.3
20260509175403 64 25 3.0 8.0 0.00 0.17 0.17 79 1004.1
20260509174903 64 23 5.0 10.0 0.00 0.17 0.17 78 1003.9
20260509174403 64 34 7.0 12.0 0.00 0.17 0.17 78 1003.8
20260509173903 64 40 6.0 12.0 0.00 0.17 0.17 78 1003.9
20260509173403 64 30 4.0 9.0 0.00 0.17 0.17 78 1003.8
20260509172903 64 11 6.0 10.0 0.00 0.17 0.17 78 1003.9
20260509172403 64 11 9.0 12.0 0.00 0.17 0.17 77 1003.8
20260509171903 64 15 9.0 13.0 0.00 0.17 0.17 77 1003.9
20260509171404 64 70 8.0 12.0 0.00 0.17 0.17 76 1003.8
20260509170903 64 42 10.0 15.0 0.01 0.17 0.17 76 1003.7
20260509165903 64 32 8.0 12.0 0.01 0.17 0.17 75 1003.8
20260509165403 64 44 8.0 14.0 0.01 0.17 0.17 75 1003.8
20260509164903 64 48 9.0 16.0 0.01 0.17 0.17 74 1003.8
20260509164403 64 52 7.0 12.0 0.01 0.17 0.17 74 1003.7
20260509163903 64 43 7.0 12.0 0.01 0.17 0.17 73 1003.8
20260509163403 64 52 10.0 14.0 0.01 0.17 0.17 73 1003.8
20260509162903 64 59 6.0 14.0 0.01 0.17 0.17 76 1003.9
20260509162403 64 73 13.0 16.0 0.01 0.17 0.17 77 1003.8
20260509161903 64 79 9.0 12.0 0.01 0.17 0.17 77 1003.8
20260509161403 63 71 6.0 13.0 0.01 0.17 0.17 83 1003.7
20260509160904 63 71 2.0 10.0 0.00 0.17 0.17 86 1003.7
20260509160403 63 34 4.0 12.0 0.00 0.17 0.17 86 1003.8
20260509155903 63 65 6.0 13.0 0.00 0.17 0.17 86 1003.9
20260509155403 63 37 5.0 12.0 0.00 0.17 0.17 86 1004.1
20260509154903 62 80 2.0 7.0 0.00 0.18 0.17 86 1004.1
20260509154403 62 46 5.0 12.0 0.00 0.19 0.17 86 1004.1
20260509153903 61 61 6.0 12.0 0.01 0.20 0.17 87 1004.2
20260509153403 61 92 4.0 8.0 0.02 0.20 0.17 87 1004.2
20260509152903 60 64 5.0 8.0 0.04 0.20 0.17 88 1004.5
20260509152403 60 96 2.0 3.0 0.04 0.20 0.17 88 1004.6
20260509151903 60 101 1.0 3.0 0.04 0.21 0.17 89 1004.7
20260509150903 60 90 1.0 8.0 0.04 0.21 0.17 90 1004.8
20260509150403 60 88 3.0 6.0 0.04 0.21 0.17 91 1004.8
20260509145903 59 84 3.0 7.0 0.04 0.21 0.17 91 1004.9
20260509145403 59 99 1.0 5.0 0.04 0.21 0.17 92 1004.9
20260509144903 59 87 1.0 10.0 0.04 0.21 0.17 91 1005.0
20260509144403 59 134 5.0 12.0 0.05 0.21 0.17 91 1005.1
20260509143903 60 109 5.0 15.0 0.08 0.20 0.16 92 1005.4
20260509142903 60 137 4.0 8.0 0.12 0.17 0.13 92 1005.4